User: anonymous   Login
Location: Cheching
(60.0667°N, 164.2167°W)
Time: 18:04:37
(UTC+00:00)
Language:

NOAA 19 - Orbit

View from above orbital plane
View from above orbital plane
View from above satellite
View from above satellite

Ground track
Ground track

The orbit data is extracted from the following two-line orbital elements,

1 33591U 09005A   21129.30716961  .00000045  00000-0  49916-4 0  9995
2 33591  99.1860 149.0381 0013068 240.0605 119.9268 14.12465468631138
Epoch (UTC): 09 May 2021 07:22:19
Eccentricity: 0.0013068
inclination: 99.1860°
perigee height: 841 km
apogee height: 860 km
right ascension of ascending node: 149.0381°
argument of perigee: 240.0605°
revolutions per day: 14.12465468
mean anomaly at epoch: 119.9268°
orbit number at epoch: 63113

The dashed part of the orbit path shows where the satellite is in the earth's shadow,  

DLR